WXM80 ListenWXM80 Stop

You find our weather info also at:

UK Metoffice

WeatherCloud

Weather Underground

Northeastern Weather Network

AWEKAS

Citizen Weather Observer Program (CWOP)

HAMweather, WeatherForYou, PWS Weather


Weather Underground History page Text

Daily Summary for May 12, 2017 Units:  English    Metric   Both
« Previous Day
Next Day »
Daily Weekly Monthly Yearly Custom
  High: Low: Average:
Temperature: 65.0 °F 45.4 °F 54.8 °F
Dew Point: 49.8 °F 41.2 °F 46.4 °F
Humidity: 95 % 53 % 75 %
Wind Speed: 6.2 mph 0.0 mph 1.6 mph
Wind Gust: 10.4 mph - -
Wind:- - ESE
Pressure: 30.05 in 29.98 in -
Precipitation: 0.00 in    
Historical Graphs
 
 
Tabular Data for May 12, 2017
Time Temperature Dew Point Pressure Wind Wind Speed Wind Gust Humidity Rainfall Rate (Hourly)
00:00 47.7 °F 41.5 °F 30.01 in Calm     79 % 0.00 in
00:01 47.6 °F 41.4 °F 30.01 in Calm     79 % 0.00 in
00:06 47.5 °F 41.3 °F 30.01 in Calm   1.2 mph 79 % 0.00 in
00:11 47.4 °F 41.2 °F 30.01 in Calm     79 % 0.00 in
00:16 47.3 °F 41.4 °F 30.01 in Calm     80 % 0.00 in
00:21 47.2 °F 41.3 °F 30.01 in Calm     80 % 0.00 in
00:26 47.1 °F 41.6 °F 30.01 in Calm     81 % 0.00 in
00:31 47.0 °F 41.5 °F 30.01 in Calm     81 % 0.00 in
00:32 47.0 °F 41.5 °F 30.01 in Calm     81 % 0.00 in
00:37 46.9 °F 41.4 °F 30.01 in Calm     81 % 0.00 in
00:42 46.8 °F 41.6 °F 30.01 in Calm   1.0 mph 82 % 0.00 in
00:47 46.7 °F 41.8 °F 30.02 in Calm     83 % 0.00 in
00:52 46.6 °F 41.7 °F 30.01 in SE 0.1 mph 2.3 mph 83 % 0.00 in
00:57 46.5 °F 41.6 °F 30.02 in SW 1.5 mph 2.3 mph 83 % 0.00 in
01:02 46.5 °F 41.6 °F 30.02 in SW 0.3 mph 1.2 mph 83 % 0.00 in
01:07 46.4 °F 41.8 °F 30.01 in Calm     84 % 0.00 in
01:12 46.4 °F 41.8 °F 30.01 in Calm     84 % 0.00 in
01:17 46.3 °F 41.7 °F 30.01 in Calm     84 % 0.00 in
01:22 46.2 °F 41.9 °F 30.01 in Calm     85 % 0.00 in
01:27 46.2 °F 41.9 °F 30.01 in Calm     85 % 0.00 in
01:32 46.1 °F 41.8 °F 30.01 in Calm   2.3 mph 85 % 0.00 in
01:37 46.0 °F 41.7 °F 30.01 in Calm     85 % 0.00 in
01:42 46.0 °F 41.7 °F 30.01 in Calm   1.2 mph 85 % 0.00 in
01:43 46.0 °F 41.7 °F 30.01 in Calm   1.2 mph 85 % 0.00 in
01:48 45.9 °F 41.6 °F 30.01 in SW 0.1 mph 1.2 mph 85 % 0.00 in
01:53 45.9 °F 41.9 °F 30.02 in Calm     86 % 0.00 in
01:58 45.8 °F 41.9 °F 30.02 in Calm     86 % 0.00 in
02:03 45.8 °F 41.9 °F 30.02 in Calm     86 % 0.00 in
02:08 45.8 °F 42.2 °F 30.02 in Calm     87 % 0.00 in
02:13 45.8 °F 42.2 °F 30.01 in Calm     87 % 0.00 in
02:18 45.8 °F 42.2 °F 30.01 in Calm     87 % 0.00 in
02:23 45.8 °F 42.2 °F 30.01 in Calm     87 % 0.00 in
02:28 45.8 °F 41.9 °F 30.01 in Calm     86 % 0.00 in
02:33 45.8 °F 41.9 °F 30.01 in Calm     86 % 0.00 in
02:38 45.7 °F 41.8 °F 30.02 in Calm     86 % 0.00 in
02:43 45.7 °F 41.8 °F 30.02 in Calm     86 % 0.00 in
02:48 45.6 °F 42.0 °F 30.02 in Calm     87 % 0.00 in
02:53 45.6 °F 42.0 °F 30.02 in Calm     87 % 0.00 in
02:58 45.5 °F 41.9 °F 30.02 in Calm     87 % 0.00 in
03:03 45.5 °F 41.9 °F 30.02 in Calm     87 % 0.00 in
03:08 45.5 °F 42.2 °F 30.02 in Calm     88 % 0.00 in
03:13 45.4 °F 42.1 °F 30.01 in Calm     88 % 0.00 in
03:18 45.5 °F 42.4 °F 30.02 in Calm     89 % 0.00 in
03:23 45.5 °F 42.4 °F 30.02 in Calm     89 % 0.00 in
03:28 45.5 °F 42.7 °F 30.02 in Calm     90 % 0.00 in
03:33 45.6 °F 42.8 °F 30.02 in Calm     90 % 0.00 in
03:38 45.6 °F 42.8 °F 30.02 in Calm     90 % 0.00 in
03:43 45.6 °F 42.8 °F 30.02 in Calm     90 % 0.00 in
03:48 45.7 °F 42.9 °F 30.01 in Calm     90 % 0.00 in
03:53 45.8 °F 43.0 °F 30.02 in Calm     90 % 0.00 in
03:58 45.8 °F 43.3 °F 30.01 in Calm     91 % 0.00 in
04:04 45.9 °F 43.4 °F 30.01 in Calm     91 % 0.00 in
04:09 46.0 °F 43.5 °F 30.01 in Calm     91 % 0.00 in
04:14 46.1 °F 43.6 °F 30.01 in Calm     91 % 0.00 in
04:19 46.2 °F 44.0 °F 30.01 in Calm     92 % 0.00 in
04:24 46.4 °F 44.2 °F 30.01 in Calm     92 % 0.00 in
04:29 46.5 °F 44.3 °F 30.01 in Calm     92 % 0.00 in
04:34 46.6 °F 44.4 °F 30.01 in Calm     92 % 0.00 in
04:39 46.7 °F 44.5 °F 30.01 in Calm     92 % 0.00 in
04:44 46.8 °F 44.6 °F 30.01 in Calm     92 % 0.00 in
04:49 47.0 °F 44.8 °F 30.01 in Calm     92 % 0.00 in
04:54 47.1 °F 44.9 °F 30.01 in Calm     92 % 0.00 in
04:59 47.2 °F 45.0 °F 30.01 in Calm     92 % 0.00 in
05:04 47.2 °F 45.0 °F 30.00 in Calm     92 % 0.00 in
05:09 47.3 °F 45.1 °F 30.01 in Calm     92 % 0.00 in
05:14 47.3 °F 45.1 °F 30.01 in Calm     92 % 0.00 in
05:19 47.3 °F 45.1 °F 30.02 in Calm     92 % 0.00 in
05:24 47.3 °F 44.8 °F 30.02 in Calm     91 % 0.00 in
05:29 47.3 °F 44.8 °F 30.01 in Calm     91 % 0.00 in
05:33 47.3 °F 44.8 °F 30.02 in Calm     91 % 0.00 in
05:38 47.3 °F 45.1 °F 30.02 in NW 0.1 mph 2.3 mph 92 % 0.00 in
05:43 47.4 °F 45.2 °F 30.02 in Calm     92 % 0.00 in
05:48 47.5 °F 45.3 °F 30.02 in Calm     92 % 0.00 in
05:53 47.5 °F 45.3 °F 30.02 in Calm     92 % 0.00 in
05:58 47.5 °F 45.3 °F 30.02 in NW 0.2 mph 1.2 mph 92 % 0.00 in
06:03 47.5 °F 45.3 °F 30.02 in Calm   1.2 mph 92 % 0.00 in
06:08 47.6 °F 45.4 °F 30.02 in Calm   1.2 mph 92 % 0.00 in
06:13 47.6 °F 45.4 °F 30.03 in NW 0.1 mph   92 % 0.00 in
06:18 47.7 °F 45.5 °F 30.03 in NNE 1.0 mph 3.5 mph 92 % 0.00 in
06:24 47.9 °F 46.0 °F 30.03 in NNE 2.1 mph 3.5 mph 93 % 0.00 in
06:29 48.0 °F 46.1 °F 30.03 in NNE 1.6 mph 3.5 mph 93 % 0.00 in
06:34 48.2 °F 46.3 °F 30.04 in NNE 0.9 mph 3.5 mph 93 % 0.00 in
06:39 48.4 °F 46.8 °F 30.04 in NNE 1.4 mph 5.8 mph 94 % 0.00 in
06:44 48.6 °F 47.0 °F 30.04 in NNE 1.6 mph 3.5 mph 94 % 0.00 in
06:49 48.7 °F 47.1 °F 30.04 in NNE 2.7 mph 4.6 mph 94 % 0.00 in
06:54 49.0 °F 47.3 °F 30.04 in NNE 0.9 mph 4.0 mph 94 % 0.00 in
06:59 49.2 °F 47.5 °F 30.04 in NNE 0.3 mph 2.3 mph 94 % 0.00 in
07:04 49.4 °F 47.7 °F 30.04 in NNE 0.1 mph 1.2 mph 94 % 0.00 in
07:09 49.8 °F 48.1 °F 30.05 in ENE 0.5 mph 3.5 mph 94 % 0.00 in
07:14 50.3 °F 48.9 °F 30.04 in NE 0.4 mph 1.2 mph 95 % 0.00 in
07:19 50.8 °F 49.4 °F 30.05 in North 1.4 mph 3.5 mph 95 % 0.00 in
07:24 51.1 °F 49.4 °F 30.05 in NE 1.5 mph 3.5 mph 94 % 0.00 in
07:29 51.5 °F 49.8 °F 30.04 in NNE 1.7 mph 2.3 mph 94 % 0.00 in
07:34 51.8 °F 49.8 °F 30.04 in ENE 5.0 mph 7.0 mph 93 % 0.00 in
07:39 52.2 °F 49.4 °F 30.04 in NE 3.4 mph 5.0 mph 90 % 0.00 in
07:44 52.8 °F 49.0 °F 30.04 in ENE 5.1 mph 7.0 mph 87 % 0.00 in
07:49 53.2 °F 48.8 °F 30.04 in ENE 2.5 mph 4.6 mph 85 % 0.00 in
07:54 53.5 °F 48.5 °F 30.04 in ENE 3.3 mph 8.1 mph 83 % 0.00 in
07:59 53.5 °F 48.1 °F 30.04 in ENE 4.4 mph 8.1 mph 82 % 0.00 in
08:04 53.3 °F 48.3 °F 30.04 in ENE 3.0 mph 4.6 mph 83 % 0.00 in
08:09 53.3 °F 48.3 °F 30.04 in ENE 4.6 mph 4.6 mph 83 % 0.00 in
08:14 53.3 °F 48.3 °F 30.04 in ENE 3.1 mph 9.2 mph 83 % 0.00 in
08:20 53.5 °F 47.8 °F 30.04 in NE 3.7 mph 7.0 mph 81 % 0.00 in
08:25 53.6 °F 47.6 °F 30.05 in ENE 2.4 mph 3.5 mph 80 % 0.00 in
08:30 53.8 °F 47.8 °F 30.05 in NE 3.3 mph 6.9 mph 80 % 0.00 in
08:35 53.8 °F 47.4 °F 30.05 in ENE 3.7 mph 5.0 mph 79 % 0.00 in
08:40 53.7 °F 47.0 °F 30.05 in ENE 3.9 mph 8.1 mph 78 % 0.00 in
08:45 53.8 °F 47.4 °F 30.05 in ENE 2.5 mph 9.2 mph 79 % 0.00 in
08:50 54.1 °F 48.1 °F 30.04 in ENE 6.2 mph 9.2 mph 80 % 0.00 in
08:55 54.2 °F 47.8 °F 30.05 in ENE 1.6 mph 6.9 mph 79 % 0.00 in
09:00 54.6 °F 48.6 °F 30.05 in ENE 3.8 mph 4.6 mph 80 % 0.00 in
09:05 55.0 °F 48.3 °F 30.05 in ENE 1.1 mph 8.1 mph 78 % 0.00 in
09:10 55.3 °F 48.2 °F 30.05 in East 4.5 mph 8.1 mph 77 % 0.00 in
09:15 55.5 °F 49.1 °F 30.04 in ENE 2.2 mph 3.5 mph 79 % 0.00 in
09:20 55.7 °F 48.2 °F 30.04 in NE 3.0 mph 8.1 mph 76 % 0.00 in
09:25 55.9 °F 48.4 °F 30.04 in ENE 2.1 mph 6.9 mph 76 % 0.00 in
09:30 56.4 °F 48.9 °F 30.05 in NNE 2.4 mph 7.0 mph 76 % 0.00 in
09:35 56.7 °F 48.9 °F 30.05 in ENE 2.2 mph 5.0 mph 75 % 0.00 in
09:40 57.2 °F 48.6 °F 30.05 in ENE 2.1 mph 4.6 mph 73 % 0.00 in
09:45 57.7 °F 48.7 °F 30.05 in ENE 1.0 mph 3.5 mph 72 % 0.00 in
09:50 58.0 °F 48.3 °F 30.05 in ENE 1.0 mph 5.0 mph 70 % 0.00 in
09:55 58.5 °F 49.8 °F 30.05 in ENE 1.0 mph 7.0 mph 73 % 0.00 in
10:01 59.0 °F 48.8 °F 30.05 in NE 3.3 mph 4.6 mph 69 % 0.00 in
10:06 59.2 °F 48.2 °F 30.05 in ENE 1.8 mph 3.5 mph 67 % 0.00 in
10:11 59.1 °F 48.5 °F 30.05 in East 3.7 mph 6.0 mph 68 % 0.00 in
10:16 59.2 °F 48.2 °F 30.05 in ENE 2.4 mph 3.5 mph 67 % 0.00 in
10:21 59.5 °F 47.7 °F 30.05 in NE 3.1 mph 3.5 mph 65 % 0.00 in
10:26 59.4 °F 47.6 °F 30.04 in ENE 3.3 mph 5.8 mph 65 % 0.00 in
10:31 59.4 °F 49.2 °F 30.04 in ENE 1.4 mph 3.5 mph 69 % 0.00 in
10:36 60.0 °F 48.2 °F 30.04 in ENE 5.0 mph 8.1 mph 65 % 0.00 in
10:41 60.0 °F 48.6 °F 30.04 in ENE 2.4 mph 3.5 mph 66 % 0.00 in
10:46 60.3 °F 49.3 °F 30.04 in East 3.8 mph 5.8 mph 67 % 0.00 in
10:51 60.6 °F 49.6 °F 30.04 in ENE 1.8 mph 4.0 mph 67 % 0.00 in
10:56 61.2 °F 49.3 °F 30.04 in ENE 3.8 mph 7.0 mph 65 % 0.00 in
11:01 61.5 °F 48.4 °F 30.03 in ENE 2.3 mph 4.6 mph 62 % 0.00 in
11:06 61.8 °F 47.8 °F 30.03 in ENE 2.8 mph 4.6 mph 60 % 0.00 in
11:11 62.2 °F 48.6 °F 30.03 in East 2.7 mph 4.6 mph 61 % 0.00 in
11:16 62.5 °F 48.9 °F 30.03 in East 2.5 mph 5.0 mph 61 % 0.00 in
11:21 62.5 °F 48.0 °F 30.04 in East 3.2 mph 5.0 mph 59 % 0.00 in
11:26 62.4 °F 48.3 °F 30.04 in East 3.9 mph 5.8 mph 60 % 0.00 in
11:31 62.6 °F 48.1 °F 30.03 in East 3.6 mph 3.6 mph 59 % 0.00 in
11:36 62.5 °F 47.5 °F 30.04 in ENE 3.2 mph 7.0 mph 58 % 0.00 in
11:42 62.8 °F 48.7 °F 30.03 in East 3.6 mph 4.6 mph 60 % 0.00 in
11:47 63.0 °F 47.1 °F 30.03 in East 3.7 mph 6.0 mph 56 % 0.00 in
11:51 63.4 °F 47.4 °F 30.03 in East 3.6 mph 4.6 mph 56 % 0.00 in
11:57 63.6 °F 47.6 °F 30.03 in ESE 3.7 mph 5.8 mph 56 % 0.00 in
12:02 63.2 °F 48.2 °F 30.03 in East 3.1 mph 4.6 mph 58 % 0.00 in
12:07 63.6 °F 48.1 °F 30.03 in East 3.5 mph 5.8 mph 57 % 0.00 in
12:12 63.5 °F 48.0 °F 30.03 in East 3.5 mph 6.9 mph 57 % 0.00 in
12:17 63.5 °F 47.5 °F 30.03 in ENE 4.1 mph 6.0 mph 56 % 0.00 in
12:22 63.6 °F 47.6 °F 30.02 in East 2.7 mph 4.6 mph 56 % 0.00 in
12:27 63.8 °F 48.3 °F 30.02 in East 4.9 mph 6.9 mph 57 % 0.00 in
12:32 63.9 °F 47.9 °F 30.02 in ESE 3.9 mph 4.6 mph 56 % 0.00 in
12:34 64.0 °F 49.8 °F 30.02 in East 3.1 mph 5.0 mph 60 % 0.00 in
12:39 64.3 °F 48.7 °F 30.02 in ESE 4.2 mph 5.0 mph 57 % 0.00 in
12:44 64.2 °F 48.2 °F 30.02 in East 3.9 mph 5.8 mph 56 % 0.00 in
12:49 64.0 °F 47.5 °F 30.02 in ENE 2.2 mph 5.8 mph 55 % 0.00 in
12:54 64.0 °F 48.5 °F 30.02 in East 4.0 mph 5.8 mph 57 % 0.00 in
12:59 64.3 °F 47.3 °F 30.02 in East 3.3 mph 4.6 mph 54 % 0.00 in
13:04 64.1 °F 48.1 °F 30.02 in ESE 2.7 mph 5.8 mph 56 % 0.00 in
13:09 64.3 °F 47.3 °F 30.01 in East 3.7 mph 6.9 mph 54 % 0.00 in
13:14 64.4 °F 47.9 °F 30.01 in East 3.7 mph 6.0 mph 55 % 0.00 in
13:19 64.4 °F 47.9 °F 30.01 in East 3.1 mph 4.6 mph 55 % 0.00 in
13:24 64.8 °F 48.7 °F 30.01 in ENE 2.9 mph 4.6 mph 56 % 0.00 in
13:29 65.0 °F 48.9 °F 30.01 in East 3.7 mph 6.0 mph 56 % 0.00 in
13:34 64.7 °F 48.2 °F 30.01 in East 4.2 mph 6.0 mph 55 % 0.00 in
13:40 64.7 °F 47.7 °F 30.01 in East 4.0 mph 5.0 mph 54 % 0.00 in
13:45 64.7 °F 48.2 °F 30.01 in East 3.5 mph 5.8 mph 55 % 0.00 in
13:50 64.8 °F 48.7 °F 30.01 in ESE 4.1 mph 6.9 mph 56 % 0.00 in
13:55 64.7 °F 48.6 °F 30.00 in East 3.9 mph 5.0 mph 56 % 0.00 in
14:00 64.7 °F 48.6 °F 30.00 in East 3.0 mph 6.9 mph 56 % 0.00 in
14:05 64.8 °F 48.7 °F 30.00 in East 3.2 mph 5.8 mph 56 % 0.00 in
14:10 64.6 °F 49.0 °F 30.00 in East 3.0 mph 4.6 mph 57 % 0.00 in
14:15 64.7 °F 47.7 °F 30.00 in East 2.8 mph 4.6 mph 54 % 0.00 in
14:20 64.7 °F 47.2 °F 30.00 in ENE 2.1 mph 3.5 mph 53 % 0.00 in
14:25 64.6 °F 47.6 °F 30.00 in ENE 2.1 mph 3.5 mph 54 % 0.00 in
14:30 64.7 °F 47.7 °F 30.00 in East 2.6 mph 4.6 mph 54 % 0.00 in
14:35 64.7 °F 47.2 °F 30.00 in ENE 2.0 mph 3.5 mph 53 % 0.00 in
14:40 64.7 °F 47.7 °F 29.99 in ENE 2.1 mph 3.5 mph 54 % 0.00 in
14:45 64.4 °F 47.4 °F 29.99 in NE 2.4 mph 4.6 mph 54 % 0.00 in
14:50 64.0 °F 47.0 °F 29.99 in ENE 2.1 mph 3.5 mph 54 % 0.00 in
14:55 63.6 °F 46.6 °F 29.99 in ENE 2.1 mph 3.5 mph 54 % 0.00 in
14:56 63.6 °F 47.6 °F 29.99 in ENE 2.1 mph 3.5 mph 56 % 0.00 in
15:01 63.8 °F 46.8 °F 29.99 in ENE 2.0 mph 3.5 mph 54 % 0.00 in
15:06 63.9 °F 46.9 °F 29.98 in ENE 2.1 mph 3.5 mph 54 % 0.00 in
15:11 64.3 °F 46.8 °F 29.99 in ENE 1.6 mph 3.5 mph 53 % 0.00 in
15:16 64.5 °F 48.0 °F 29.99 in NE 2.6 mph 5.0 mph 55 % 0.00 in
15:21 64.5 °F 47.0 °F 29.98 in ENE 2.0 mph 8.0 mph 53 % 0.00 in
15:26 64.6 °F 47.6 °F 29.99 in ENE 2.0 mph 8.0 mph 54 % 0.00 in
15:31 64.5 °F 47.5 °F 29.99 in East 5.7 mph 10.4 mph 54 % 0.00 in
15:36 63.9 °F 46.9 °F 29.99 in ENE 6.0 mph 9.0 mph 54 % 0.00 in
15:41 63.4 °F 48.4 °F 29.98 in ENE 1.7 mph 3.5 mph 58 % 0.00 in
15:46 63.0 °F 46.6 °F 29.98 in ENE 1.0 mph 4.0 mph 55 % 0.00 in
15:51 62.4 °F 46.5 °F 29.98 in ENE 1.0 mph 5.0 mph 56 % 0.00 in
15:56 62.0 °F 47.5 °F 29.98 in ENE 3.8 mph 4.0 mph 59 % 0.00 in
16:01 62.1 °F 48.0 °F 29.98 in ENE 2.0 mph 4.6 mph 60 % 0.00 in
16:06 62.4 °F 47.9 °F 29.98 in ENE 1.0 mph 2.3 mph 59 % 0.00 in
16:11 62.7 °F 48.6 °F 29.98 in ENE 0.7 mph 2.3 mph 60 % 0.00 in
16:16 62.8 °F 49.6 °F 29.98 in NE 1.0 mph 2.3 mph 62 % 0.00 in
16:21 62.9 °F 48.8 °F 29.98 in ENE 1.0 mph 5.0 mph 60 % 0.00 in
16:26 63.0 °F 48.4 °F 29.99 in ENE 1.0 mph 7.0 mph 59 % 0.00 in
16:31 63.0 °F 48.4 °F 29.99 in Calm   1.0 mph 59 % 0.00 in
16:36 62.6 °F 48.5 °F 29.99 in Calm   1.0 mph 60 % 0.00 in
16:41 62.5 °F 48.4 °F 29.99 in Calm   2.0 mph 60 % 0.00 in
16:46 62.4 °F 47.4 °F 29.99 in Calm   2.0 mph 58 % 0.00 in
16:51 62.4 °F 47.9 °F 29.99 in ENE 1.0 mph 3.0 mph 59 % 0.00 in
16:56 62.4 °F 48.3 °F 29.99 in Calm   2.0 mph 60 % 0.00 in
17:01 62.5 °F 47.5 °F 29.99 in SE 5.4 mph 8.1 mph 58 % 0.00 in
17:06 62.6 °F 47.1 °F 29.98 in SSE 3.7 mph 6.9 mph 57 % 0.00 in
17:11 62.2 °F 46.3 °F 29.98 in SE 0.8 mph 10.4 mph 56 % 0.00 in
17:16 61.7 °F 46.8 °F 29.98 in SSE 4.7 mph 8.1 mph 58 % 0.00 in
17:21 61.4 °F 46.9 °F 29.98 in SE 0.1 mph 3.5 mph 59 % 0.00 in
17:26 60.9 °F 46.5 °F 29.98 in SSE 3.7 mph 5.8 mph 59 % 0.00 in
17:31 60.6 °F 46.6 °F 29.98 in SE 0.7 mph 3.5 mph 60 % 0.00 in
17:36 60.5 °F 47.0 °F 29.98 in South 1.4 mph 3.5 mph 61 % 0.00 in
17:41 60.5 °F 47.0 °F 29.98 in SSE 1.6 mph 3.5 mph 61 % 0.00 in
17:46 60.2 °F 46.7 °F 29.98 in SE 5.4 mph 8.1 mph 61 % 0.00 in
17:51 60.1 °F 47.5 °F 29.98 in WSW 1.8 mph 3.5 mph 63 % 0.00 in
17:54 60.1 °F 47.5 °F 29.98 in WSW 0.9 mph 3.0 mph 63 % 0.00 in
17:59 60.1 °F 47.0 °F 29.98 in SE 2.2 mph 4.6 mph 62 % 0.00 in
18:04 60.1 °F 47.0 °F 29.99 in SE 1.6 mph 5.8 mph 62 % 0.00 in
18:06 60.0 °F 46.9 °F 29.99 in SSE 0.2 mph 3.5 mph 62 % 0.00 in
18:11 59.9 °F 47.3 °F 29.99 in SSW 1.8 mph 4.0 mph 63 % 0.00 in
18:16 59.8 °F 47.2 °F 29.99 in SSW 0.9 mph 2.3 mph 63 % 0.00 in
18:21 59.5 °F 46.9 °F 29.99 in South 1.8 mph 5.8 mph 63 % 0.00 in
18:22 59.5 °F 46.9 °F 29.98 in South 0.9 mph 1.2 mph 63 % 0.00 in
18:28 59.2 °F 47.0 °F 29.99 in SSE 3.7 mph 8.1 mph 64 % 0.00 in
18:33 58.8 °F 47.1 °F 29.99 in SE 4.9 mph 8.1 mph 65 % 0.00 in
18:38 58.5 °F 47.2 °F 29.99 in South 2.7 mph 5.8 mph 66 % 0.00 in
18:43 58.1 °F 47.2 °F 29.99 in SSE 0.5 mph 3.5 mph 67 % 0.00 in
18:48 57.8 °F 46.9 °F 29.99 in SSE 1.2 mph 4.6 mph 67 % 0.00 in
18:53 57.5 °F 47.0 °F 29.99 in SSE 3.0 mph 5.8 mph 68 % 0.00 in
18:58 57.1 °F 46.6 °F 29.99 in SSE 0.7 mph 3.5 mph 68 % 0.00 in
19:03 56.8 °F 46.7 °F 29.99 in SSE 2.2 mph 6.0 mph 69 % 0.00 in
19:08 56.5 °F 46.4 °F 29.99 in SE 0.8 mph 3.5 mph 69 % 0.00 in
19:13 56.3 °F 46.6 °F 29.99 in SE 2.8 mph 8.1 mph 70 % 0.00 in
19:18 56.0 °F 46.7 °F 30.00 in SSE 0.5 mph 3.5 mph 71 % 0.00 in
19:23 55.8 °F 46.5 °F 29.99 in ESE 3.4 mph 5.8 mph 71 % 0.00 in
19:28 55.5 °F 46.6 °F 29.99 in SE 3.1 mph 6.0 mph 72 % 0.00 in
19:33 55.3 °F 46.4 °F 30.00 in SSE 1.8 mph 4.6 mph 72 % 0.00 in
19:38 55.2 °F 46.7 °F 30.00 in SE 2.3 mph 4.6 mph 73 % 0.00 in
19:43 55.1 °F 46.6 °F 30.00 in SE 3.5 mph 6.9 mph 73 % 0.00 in
19:48 54.7 °F 46.2 °F 30.00 in SSE 4.7 mph 9.2 mph 73 % 0.00 in
19:53 54.4 °F 46.3 °F 30.00 in SE 3.3 mph 5.8 mph 74 % 0.00 in
19:58 54.3 °F 46.5 °F 30.01 in SSE 2.7 mph 8.0 mph 75 % 0.00 in
20:03 54.1 °F 46.3 °F 30.00 in SSE 3.9 mph 5.8 mph 75 % 0.00 in
20:08 53.9 °F 46.5 °F 30.00 in SSE 1.9 mph 4.6 mph 76 % 0.00 in
20:13 53.7 °F 46.3 °F 30.01 in SE 2.3 mph 9.2 mph 76 % 0.00 in
20:18 53.5 °F 46.5 °F 30.00 in SE 2.0 mph 4.0 mph 77 % 0.00 in
20:23 53.5 °F 46.5 °F 30.01 in SE 0.2 mph 2.0 mph 77 % 0.00 in
20:28 53.3 °F 46.6 °F 30.00 in SE 0.2 mph 3.5 mph 78 % 0.00 in
20:33 53.3 °F 46.6 °F 30.01 in SE 0.2 mph 1.0 mph 78 % 0.00 in
20:38 53.2 °F 46.5 °F 30.00 in SE 2.4 mph 3.5 mph 78 % 0.00 in
20:43 53.0 °F 46.7 °F 30.00 in SE 1.3 mph 4.0 mph 79 % 0.00 in
20:48 52.9 °F 46.6 °F 30.00 in SSE 2.6 mph 5.8 mph 79 % 0.00 in
20:53 52.8 °F 46.5 °F 30.00 in SE 1.7 mph 3.5 mph 79 % 0.00 in
20:58 52.8 °F 46.8 °F 30.00 in Calm     80 % 0.00 in
21:03 52.8 °F 47.1 °F 30.00 in Calm   2.3 mph 81 % 0.00 in
21:08 52.7 °F 47.0 °F 30.00 in SE 0.2 mph 3.5 mph 81 % 0.00 in
21:13 52.7 °F 47.0 °F 30.00 in SE 2.2 mph 3.5 mph 81 % 0.00 in
21:18 52.7 °F 47.0 °F 30.00 in SSE 0.5 mph 2.3 mph 81 % 0.00 in
21:23 52.7 °F 47.0 °F 30.00 in SE 1.2 mph 3.0 mph 81 % 0.00 in
21:28 52.7 °F 47.0 °F 30.00 in SE 1.6 mph 3.5 mph 81 % 0.00 in
21:34 52.7 °F 47.0 °F 30.00 in SE 0.4 mph 2.3 mph 81 % 0.00 in
21:39 52.7 °F 47.0 °F 30.00 in SE 1.6 mph 3.5 mph 81 % 0.00 in
21:44 52.7 °F 47.0 °F 30.00 in SE 1.0 mph 6.0 mph 81 % 0.00 in
21:49 52.7 °F 47.4 °F 30.00 in SE 0.3 mph 4.6 mph 82 % 0.00 in
21:54 52.6 °F 47.3 °F 30.00 in Calm   1.2 mph 82 % 0.00 in
21:59 52.6 °F 47.3 °F 30.00 in SE 0.8 mph   82 % 0.00 in
22:04 52.6 °F 47.6 °F 29.99 in Calm   1.2 mph 83 % 0.00 in
22:09 52.5 °F 47.2 °F 30.00 in Calm     82 % 0.00 in
22:14 52.4 °F 47.1 °F 30.00 in Calm   1.2 mph 82 % 0.00 in
22:19 52.4 °F 47.4 °F 30.00 in Calm     83 % 0.00 in
22:24 52.4 °F 47.4 °F 30.00 in Calm   1.2 mph 83 % 0.00 in
22:29 52.3 °F 47.3 °F 30.00 in SSE 0.2 mph 3.5 mph 83 % 0.00 in
22:34 52.2 °F 47.2 °F 30.00 in SE 0.1 mph 1.2 mph 83 % 0.00 in
22:39 52.2 °F 47.5 °F 30.00 in Calm     84 % 0.00 in
22:44 52.1 °F 47.4 °F 30.00 in Calm     84 % 0.00 in
22:49 52.1 °F 47.4 °F 30.00 in SE 0.1 mph 1.0 mph 84 % 0.00 in
22:54 52.0 °F 47.3 °F 30.00 in Calm     84 % 0.00 in
22:59 52.0 °F 47.3 °F 30.00 in SE 1.0 mph 2.0 mph 84 % 0.00 in
23:04 52.0 °F 47.3 °F 30.00 in SE 0.1 mph 3.5 mph 84 % 0.00 in
23:09 52.0 °F 47.3 °F 30.00 in SE 0.7 mph 3.5 mph 84 % 0.00 in
23:14 52.0 °F 47.3 °F 29.99 in SE 0.1 mph 1.2 mph 84 % 0.00 in
23:19 52.0 °F 47.3 °F 29.99 in Calm     84 % 0.00 in
23:24 52.0 °F 47.3 °F 29.99 in Calm     84 % 0.00 in
23:29 52.1 °F 47.4 °F 29.99 in Calm     84 % 0.00 in
23:34 52.1 °F 47.4 °F 29.99 in SE 0.1 mph 3.5 mph 84 % 0.00 in
23:39 52.1 °F 47.4 °F 29.99 in Calm   1.0 mph 84 % 0.00 in
23:44 52.1 °F 47.4 °F 29.99 in Calm     84 % 0.00 in
23:49 52.1 °F 47.4 °F 29.99 in SE 0.4 mph 1.2 mph 84 % 0.00 in
23:54 52.1 °F 47.4 °F 29.99 in SE 0.2 mph 1.2 mph 84 % 0.00 in
23:59 52.1 °F 47.1 °F 29.99 in Calm   3.5 mph 83 % 0.00 in
Crab Meadow Weather
Compliments of Weather Underground - 3 mb

Script developed by  Jim McMurry - jmcmurry@mwt.net Adapted for the template by  Wim van der Kuil - Leuven-Template.eu

Astronomy: The rings of Saturn are made of ice and rock.